{"data":{"norad_id":42934,"epoch":"2026-09-19T03:22:51.302784Z","epoch_age_seconds":143419,"freshness":"FRESH","line1":"1 42934U 17053A   26262.14087156 -.00000286  00000+0  00000+0 0  9993","line2":"2 42934   0.0477 318.6340 0003909 274.9492 114.1642  1.00255307 32989","mean_motion":1.00255307,"eccentricity":0.0003909,"inclination_deg":0.0477,"raan_deg":318.634,"arg_perigee_deg":274.9492,"mean_anomaly_deg":114.1642,"bstar":0,"rev_number":3298,"period_min":1436.3329414572,"perigee_km":35774.730975764,"apogee_km":35807.698975138,"semimajor_km":42169.351975451,"source":"CELESTRAK","updated_at":"2026-09-20T09:00:35.256278Z"}}